Regional Weather Roundup
Issued by NWS

Home | Current Version | Previous Version | Graphics & Text | Print | Product List | Glossary On
Versions: 1 2 3 4 5 6 7 8 9 10 11 12 13 14 15 16 17 18 19 20 21 22 23 24 25 26 27 28 29 30 31 32 33 34 35 36 37 38 39 40 41 42 43 44 45 46 47 48 49 50
000
ASUS43 KDMX 261801
RWRIA

WEATHER ROUNDUP FOR IOWA
NATIONAL WEATHER SERVICE DES MOINES IA
100 PM CDT THU APR 26 2018

NOTE: "FAIR" INDICATES FEW OR NO CLOUDS BELOW 12,000 FEET WITH NO
SIGNIFICANT WEATHER AND/OR OBSTRUCTIONS TO VISIBILITY.

* - THESE STATIONS ARE NOT NWS STATIONS...THUS NOT UNDER NWS
QUALITY CONTROL.  THEY ALSO DO NOT REPORT WEATHER SUCH
AS PRECIPITATION OR FOG.

IAZ001>003-012>014-020>022-031>034-043>046-261900-
   NORTHWEST IOWA

CITY           SKY/WX    TMP DP  RH WIND       PRES   REMARKS
CARROLL *      MOSUNNY   68  34  28 W17G25    29.93R
CHEROKEE *     PTSUNNY   62  39  42 NW15G23   29.95S
DENISON *      MOSUNNY   64  39  39 W16G24    29.95S
LE MARS *      SUNNY     61  39  44 N23G29    29.98R
ORANGE CITY *  SUNNY     61  43  51 N17G29    29.98R
SHELDON *      SUNNY     59  43  55 N25G35    29.96R
SIOUX CITY     MOSUNNY   63  39  41 N18G31    29.97R
6HR MIN TEMP:  43; 6HR MAX TEMP:  64;

SPENCER        PTSUNNY   59  41  51 N18G31    29.95R
6HR MIN TEMP:  38; 6HR MAX TEMP:  61;

STORM LAKE *   CLOUDY    59  37  44 NW15G24   29.94R
$$

IAZ055>058-069>071-079>083-090>094-261900-
   SOUTHWEST IOWA

CITY           SKY/WX    TMP DP  RH WIND       PRES   REMARKS
ATLANTIC *     SUNNY     64  32  29 W14       29.95S
AUDUBON *      SUNNY     66  30  26 SW13G18   29.95S
CLARINDA *     MOSUNNY   63  32  31 W9G16     29.99F
COUNCIL BLFS * SUNNY     64  39  39 W16       29.96S
CRESTON *      CLOUDY    64  34  32 SW12G17   29.97F
HARLAN  *      MOSUNNY   66  36  32 W18G24    29.98S
LAMONI         SUNNY     65  34  31 W10       29.96F
6HR MIN TEMP:  38; 6HR MAX TEMP:  65;

RED OAK *      MOSUNNY   64  36  34 SW10G18   29.98R
SHENANDOAH *   PTSUNNY   64  37  36 W14G20    29.99R
$$

IAZ047>049-059>061-072>074-084-261900-
   CENTRAL IOWA

CITY           SKY/WX    TMP DP  RH WIND       PRES   REMARKS
AMES           SUNNY     69  29  22 W14       29.92F
6HR MIN TEMP:  36; 6HR MAX TEMP:  69;

ANKENY *       SUNNY     66  28  24 SW13      29.94F
BOONE *        SUNNY     66  28  24 W13G18    29.91F
CHARITON *     SUNNY     66  32  28 NW13G18   29.94F
DES MOINES     CLOUDY    68  30  24 W9        29.93F
6HR MIN TEMP:  41; 6HR MAX TEMP:  68;

GRINNELL*      MOSUNNY   67  31  26 W12       29.94F
KNOXVILLE *    SUNNY     66  28  24 W14G20    29.93F
MARSHALLTOWN   SUNNY     67  33  28 W17       29.91F
6HR MIN TEMP:  34; 6HR MAX TEMP:  67;

NEWTON *       SUNNY     66  28  24 VRB5G16   29.93F
PELLA *        SUNNY     67  29  24 W7        29.95F
$$

IAZ004>006-015-016-023>025-035-036-261900-
   NORTH CENTRAL IOWA

CITY           SKY/WX    TMP DP  RH WIND       PRES   REMARKS
ALGONA *       CLOUDY    61  41  48 NW13G22   29.92R
CLARION *      SUNNY     66  34  30 W16G24    29.90S
ESTHERVILLE    CLOUDY    55  44  66 N16       29.93R
6HR MIN TEMP:  40; 6HR MAX TEMP:  57;

FORT DODGE *   SUNNY     67  35  30 W16G22    29.91F
MASON CITY     CLOUDY    63  36  36 W15       29.90F
6HR MIN TEMP:  39; 6HR MAX TEMP:  64;

FOREST CITY *  FAIR      63  37  39 W14G20    29.89F
WEBSTER CITY * SUNNY     68  32  26 W14G22    29.88F
IOWA FALLS *   FAIR      67  30  25 SW14G20   29.91F
$$

IAZ007>011-017>019-026>030-037>042-050>054-066-261900-
   NORTHEAST IOWA

CITY           SKY/WX    TMP DP  RH WIND       PRES   REMARKS
CEDAR RAPIDS   FAIR      68  29  23 W7        29.91F
6HR MIN TEMP:  37; 6HR MAX TEMP:  68;

CHARLES CITY * FAIR      64  32  29 W20       29.90F
DECORAH *      FAIR      64  32  29 W8G15     29.88F
DUBUQUE        FAIR      63  31  30 NW9       29.91F
6HR MIN TEMP:  37; 6HR MAX TEMP:  64;

MONTICELLO *   FAIR      66  28  24 W10G17    29.91F
OELWEIN *      FAIR      64  30  27 W10G21    29.90F
WATERLOO       FAIR      67  31  26 W15       29.89F
6HR MIN TEMP:  33; 6HR MAX TEMP:  67;

$$

IAZ064-065-067-068-078-261900-
   EAST CENTRAL IOWA

CITY           SKY/WX    TMP DP  RH WIND       PRES   REMARKS
DAVENPORT      FAIR      66  30  26 VRB7G21   29.94F
6HR MIN TEMP:  38; 6HR MAX TEMP:  66;

IOWA CITY      FAIR      67  30  25 W10       29.93F
6HR MIN TEMP:  38; 6HR MAX TEMP:  67;

MT. PLEASANT * SUNNY     66  27  22 SW3       29.93F
MUSCATINE *    FAIR      68  30  24 VRB6G12   29.93F
QUAD CITIES    FAIR      67  33  28 VRB5      29.92F
6HR MIN TEMP:  36; 6HR MAX TEMP:  67;

$$

IAZ062-063-075>077-085>089-095>099-261900-
   SOUTHEAST IOWA

CITY           SKY/WX    TMP DP  RH WIND       PRES   REMARKS
BURLINGTON     CLOUDY    67  30  25 VRB5      29.93F
6HR MIN TEMP:  42; 6HR MAX TEMP:  67;

FAIRFIELD *    SUNNY     66  25  20 VRB6G13   29.93F
FORT MADISON * SUNNY     66  34  30 W5        29.95F
KEOKUK *       MOSUNNY   66  34  30 W8        29.94F
OSKALOOSA *    FAIR      67  26  21 W10G18    29.94F
CENTERVILLE *  FAIR      66  28  24 SW8       29.97S
OTTUMWA        SUNNY     67  28  23 W8        29.93F
6HR MIN TEMP:  35; 6HR MAX TEMP:  68;

WASHINGTON *   SUNNY     68  28  22 NW13      29.94F
$$

ABBREVIATIONS USED IN REMARKS
   TC - TEMPERATURES IN CELSIUS
  WCI - WIND CHILL INDEX
   HX - HEAT INDEX
  VSB - VISIBILITY
$$





USA.gov is the U.S. government's official web portal to all federal, state and local government web resources and services.